Data supplied by UK-AIR on 25/3/2021
All Data GMT hour ending 
Status: R =Ratified P=Provisional,P*=As supplied
,,Eastbourne,,,,,,,,,,,,,,,,,,,,,,,
Date,time,"PM<sub>10</sub> particulate matter (Hourly measured)",status,unit,"Nitric oxide",status,unit,"Nitrogen dioxide",status,unit,"Nitrogen oxides as nitrogen dioxide",status,unit,"PM<sub>2.5</sub> particulate matter (Hourly measured)",status,unit
 
01-01-2020,01:00,48.925,R,ugm-3 (FIDAS),2.72991,R,ugm-3,33.53642,R,ugm-3,37.72222,R,ugm-3,41.958,R,ugm-3 (Ref.eq)
01-01-2020,02:00,45.150,R,ugm-3 (FIDAS),6.39962,R,ugm-3,40.89595,R,ugm-3,50.70856,R,ugm-3,39.128,R,ugm-3 (Ref.eq)
01-01-2020,03:00,46.675,R,ugm-3 (FIDAS),15.70815,R,ugm-3,32.24018,R,ugm-3,56.32567,R,ugm-3,41.156,R,ugm-3 (Ref.eq)
01-01-2020,04:00,42.750,R,ugm-3 (FIDAS),16.84934,R,ugm-3,28.58365,R,ugm-3,54.41894,R,ugm-3,37.901,R,ugm-3 (Ref.eq)
01-01-2020,05:00,40.550,R,ugm-3 (FIDAS),1.98030,R,ugm-3,35.25267,R,ugm-3,38.28909,R,ugm-3,36.344,R,ugm-3 (Ref.eq)
01-01-2020,06:00,41.525,R,ugm-3 (FIDAS),6.41081,R,ugm-3,45.31064,R,ugm-3,55.14041,R,ugm-3,36.934,R,ugm-3 (Ref.eq)
01-01-2020,07:00,39.375,R,ugm-3 (FIDAS),5.06823,R,ugm-3,31.80624,R,ugm-3,39.57742,R,ugm-3,34.953,R,ugm-3 (Ref.eq)
01-01-2020,08:00,38.100,R,ugm-3 (FIDAS),7.24992,R,ugm-3,46.80681,R,ugm-3,57.92320,R,ugm-3,34.340,R,ugm-3 (Ref.eq)
01-01-2020,09:00,34.525,R,ugm-3 (FIDAS),3.79278,R,ugm-3,36.95695,R,ugm-3,42.77247,R,ugm-3,31.156,R,ugm-3 (Ref.eq)
01-01-2020,10:00,30.675,R,ugm-3 (FIDAS),2.61803,R,ugm-3,25.87494,R,ugm-3,29.88919,R,ugm-3,27.854,R,ugm-3 (Ref.eq)
01-01-2020,11:00,28.775,R,ugm-3 (FIDAS),2.85298,R,ugm-3,23.29877,R,ugm-3,27.67327,R,ugm-3,26.227,R,ugm-3 (Ref.eq)
01-01-2020,12:00,27.575,R,ugm-3 (FIDAS),2.48377,R,ugm-3,20.20603,R,ugm-3,24.01442,R,ugm-3,24.293,R,ugm-3 (Ref.eq)
01-01-2020,13:00,28.025,R,ugm-3 (FIDAS),2.04743,R,ugm-3,19.68981,R,ugm-3,22.82916,R,ugm-3,25.047,R,ugm-3 (Ref.eq)
01-01-2020,14:00,30.275,R,ugm-3 (FIDAS),1.30901,R,ugm-3,18.96684,R,ugm-3,20.97397,R,ugm-3,26.462,R,ugm-3 (Ref.eq)
01-01-2020,15:00,31.475,R,ugm-3 (FIDAS),1.10763,R,ugm-3,18.50264,R,ugm-3,20.20097,R,ugm-3,27.311,R,ugm-3 (Ref.eq)
01-01-2020,16:00,32.675,R,ugm-3 (FIDAS),1.27545,R,ugm-3,20.46124,R,ugm-3,22.41689,R,ugm-3,29.057,R,ugm-3 (Ref.eq)
01-01-2020,17:00,36.500,R,ugm-3 (FIDAS),1.10763,R,ugm-3,23.50135,R,ugm-3,25.19968,R,ugm-3,32.241,R,ugm-3 (Ref.eq)
01-01-2020,18:00,34.475,R,ugm-3 (FIDAS),1.27545,R,ugm-3,24.01702,R,ugm-3,25.97268,R,ugm-3,30.802,R,ugm-3 (Ref.eq)
01-01-2020,19:00,34.325,R,ugm-3 (FIDAS),1.87961,R,ugm-3,25.20351,R,ugm-3,28.08554,R,ugm-3,30.967,R,ugm-3 (Ref.eq)
01-01-2020,20:00,35.775,R,ugm-3 (FIDAS),1.37614,R,ugm-3,24.89329,R,ugm-3,27.00334,R,ugm-3,32.241,R,ugm-3 (Ref.eq)
01-01-2020,21:00,35.750,R,ugm-3 (FIDAS),1.37614,R,ugm-3,21.90437,R,ugm-3,24.01442,R,ugm-3,32.005,R,ugm-3 (Ref.eq)
01-01-2020,22:00,36.300,R,ugm-3 (FIDAS),1.61109,R,ugm-3,22.00791,R,ugm-3,24.47822,R,ugm-3,32.618,R,ugm-3 (Ref.eq)
01-01-2020,23:00,34.950,R,ugm-3 (FIDAS),1.84604,R,ugm-3,24.01818,R,ugm-3,26.84874,R,ugm-3,31.415,R,ugm-3 (Ref.eq)
01-01-2020,24:00,28.375,R,ugm-3 (FIDAS),1.47683,R,ugm-3,24.06896,R,ugm-3,26.33341,R,ugm-3,25.660,R,ugm-3 (Ref.eq)
02-01-2020,01:00,26.850,R,ugm-3 (FIDAS),1.38894,R,ugm-3,21.11781,R,ugm-3,23.24749,R,ugm-3,24.175,R,ugm-3 (Ref.eq)
02-01-2020,02:00,24.000,R,ugm-3 (FIDAS),1.38894,R,ugm-3,16.57837,R,ugm-3,18.70804,R,ugm-3,21.415,R,ugm-3 (Ref.eq)
02-01-2020,03:00,21.575,R,ugm-3 (FIDAS),1.41134,R,ugm-3,20.17214,R,ugm-3,22.33616,R,ugm-3,18.986,R,ugm-3 (Ref.eq)
02-01-2020,04:00,14.600,R,ugm-3 (FIDAS),1.34413,R,ugm-3,19.14032,R,ugm-3,21.20129,R,ugm-3,13.231,R,ugm-3 (Ref.eq)
02-01-2020,05:00,5.175,R,ugm-3 (FIDAS),0.80648,R,ugm-3,10.73106,R,ugm-3,11.96764,R,ugm-3,4.292,R,ugm-3 (Ref.eq)
02-01-2020,06:00,5.000,R,ugm-3 (FIDAS),0.60486,R,ugm-3,12.12348,R,ugm-3,13.05092,R,ugm-3,3.656,R,ugm-3 (Ref.eq)
02-01-2020,07:00,3.150,R,ugm-3 (FIDAS),2.75547,R,ugm-3,15.89302,R,ugm-3,20.11802,R,ugm-3,2.241,R,ugm-3 (Ref.eq)
02-01-2020,08:00,4.875,R,ugm-3 (FIDAS),2.55385,R,ugm-3,18.93616,R,ugm-3,22.85200,R,ugm-3,3.679,R,ugm-3 (Ref.eq)
02-01-2020,09:00,5.175,R,ugm-3 (FIDAS),2.31863,R,ugm-3,16.51126,R,ugm-3,20.06643,R,ugm-3,3.561,R,ugm-3 (Ref.eq)
02-01-2020,10:00,5.500,R,ugm-3 (FIDAS),1.04170,R,ugm-3,10.00929,R,ugm-3,11.60655,R,ugm-3,3.255,R,ugm-3 (Ref.eq)
02-01-2020,11:00,5.500,R,ugm-3 (FIDAS),0.70567,R,ugm-3,7.11995,R,ugm-3,8.20196,R,ugm-3,3.066,R,ugm-3 (Ref.eq)
02-01-2020,12:00,5.350,R,ugm-3 (FIDAS),0.90729,R,ugm-3,7.42982,R,ugm-3,8.82098,R,ugm-3,2.972,R,ugm-3 (Ref.eq)
02-01-2020,13:00,7.775,R,ugm-3 (FIDAS),0.94089,R,ugm-3,7.63622,R,ugm-3,9.07890,R,ugm-3,4.080,R,ugm-3 (Ref.eq)
02-01-2020,14:00,11.775,R,ugm-3 (FIDAS),0.67207,R,ugm-3,7.11989,R,ugm-3,8.15038,R,ugm-3,5.212,R,ugm-3 (Ref.eq)
02-01-2020,15:00,12.200,R,ugm-3 (FIDAS),0.57126,R,ugm-3,4.69523,R,ugm-3,5.57114,R,ugm-3,5.307,R,ugm-3 (Ref.eq)
02-01-2020,16:00,14.175,R,ugm-3 (FIDAS),0.33603,R,ugm-3,5.21065,R,ugm-3,5.72590,R,ugm-3,6.344,R,ugm-3 (Ref.eq)
02-01-2020,17:00,15.450,R,ugm-3 (FIDAS),0.53765,R,ugm-3,5.88162,R,ugm-3,6.70601,R,ugm-3,7.311,R,ugm-3 (Ref.eq)
02-01-2020,18:00,15.250,R,ugm-3 (FIDAS),0.47045,R,ugm-3,5.21090,R,ugm-3,5.93224,R,ugm-3,7.217,R,ugm-3 (Ref.eq)
02-01-2020,19:00,15.400,R,ugm-3 (FIDAS),0.43684,R,ugm-3,4.38548,R,ugm-3,5.05530,R,ugm-3,7.217,R,ugm-3 (Ref.eq)
02-01-2020,20:00,13.550,R,ugm-3 (FIDAS),0.40324,R,ugm-3,4.59176,R,ugm-3,5.21005,R,ugm-3,6.604,R,ugm-3 (Ref.eq)
02-01-2020,21:00,14.350,R,ugm-3 (FIDAS),0.33603,R,ugm-3,4.74639,R,ugm-3,5.26164,R,ugm-3,6.745,R,ugm-3 (Ref.eq)
02-01-2020,22:00,13.025,R,ugm-3 (FIDAS),0.30243,R,ugm-3,2.73453,R,ugm-3,3.19825,R,ugm-3,6.533,R,ugm-3 (Ref.eq)
02-01-2020,23:00,12.125,R,ugm-3 (FIDAS),0.30243,R,ugm-3,2.21868,R,ugm-3,2.68240,R,ugm-3,6.368,R,ugm-3 (Ref.eq)
02-01-2020,24:00,16.175,R,ugm-3 (FIDAS),0.30243,R,ugm-3,4.84950,R,ugm-3,5.31322,R,ugm-3,8.066,R,ugm-3 (Ref.eq)
03-01-2020,01:00,18.525,R,ugm-3 (FIDAS),0.26914,R,ugm-3,2.68550,R,ugm-3,3.09817,R,ugm-3,9.811,R,ugm-3 (Ref.eq)
03-01-2020,02:00,18.875,R,ugm-3 (FIDAS),0.44856,R,ugm-3,1.58421,R,ugm-3,2.27200,R,ugm-3,10.425,R,ugm-3 (Ref.eq)
03-01-2020,03:00,17.325,R,ugm-3 (FIDAS),0.37006,R,ugm-3,3.30529,R,ugm-3,3.87272,R,ugm-3,9.528,R,ugm-3 (Ref.eq)
03-01-2020,04:00,10.075,R,ugm-3 (FIDAS),0.26914,R,ugm-3,1.29132,R,ugm-3,1.70400,R,ugm-3,6.297,R,ugm-3 (Ref.eq)
03-01-2020,05:00,13.300,R,ugm-3 (FIDAS),0.30278,R,ugm-3,1.60120,R,ugm-3,2.06545,R,ugm-3,7.382,R,ugm-3 (Ref.eq)
03-01-2020,06:00,16.450,R,ugm-3 (FIDAS),0.23550,R,ugm-3,2.01418,R,ugm-3,2.37527,R,ugm-3,9.198,R,ugm-3 (Ref.eq)
03-01-2020,07:00,18.200,R,ugm-3 (FIDAS),0.37006,R,ugm-3,2.47911,R,ugm-3,3.04654,R,ugm-3,10.212,R,ugm-3 (Ref.eq)
03-01-2020,08:00,15.300,R,ugm-3 (FIDAS),0.33642,R,ugm-3,3.66670,R,ugm-3,4.18253,R,ugm-3,8.915,R,ugm-3 (Ref.eq)
03-01-2020,09:00,16.100,R,ugm-3 (FIDAS),0.80741,R,ugm-3,5.11324,R,ugm-3,6.35126,R,ugm-3,9.080,R,ugm-3 (Ref.eq)
03-01-2020,10:00,15.150,R,ugm-3 (FIDAS),0.47099,R,ugm-3,3.20218,R,ugm-3,3.92435,R,ugm-3,8.019,R,ugm-3 (Ref.eq)
03-01-2020,11:00,14.725,R,ugm-3 (FIDAS),0.53827,R,ugm-3,5.47428,R,ugm-3,6.29962,R,ugm-3,7.594,R,ugm-3 (Ref.eq)
03-01-2020,12:00,7.400,R,ugm-3 (FIDAS),0.74013,R,ugm-3,9.34731,R,ugm-3,10.48215,R,ugm-3,4.033,R,ugm-3 (Ref.eq)
03-01-2020,13:00,7.875,R,ugm-3 (FIDAS),1.54754,R,ugm-3,9.45184,R,ugm-3,11.82470,R,ugm-3,4.906,R,ugm-3 (Ref.eq)
03-01-2020,14:00,9.050,R,ugm-3 (FIDAS),1.48025,R,ugm-3,10.48446,R,ugm-3,12.75415,R,ugm-3,5.472,R,ugm-3 (Ref.eq)
03-01-2020,15:00,7.900,R,ugm-3 (FIDAS),0.97562,R,ugm-3,10.58694,R,ugm-3,12.08288,R,ugm-3,4.741,R,ugm-3 (Ref.eq)
03-01-2020,16:00,5.975,R,ugm-3 (FIDAS),0.74013,R,ugm-3,13.16839,R,ugm-3,14.30323,R,ugm-3,3.939,R,ugm-3 (Ref.eq)
03-01-2020,17:00,10.225,R,ugm-3 (FIDAS),0.74013,R,ugm-3,20.34582,R,ugm-3,21.48067,R,ugm-3,5.849,R,ugm-3 (Ref.eq)
03-01-2020,18:00,15.950,R,ugm-3 (FIDAS),0.97562,R,ugm-3,26.54254,R,ugm-3,28.03847,R,ugm-3,10.024,R,ugm-3 (Ref.eq)
03-01-2020,19:00,15.025,R,ugm-3 (FIDAS),0.77377,R,ugm-3,21.12042,R,ugm-3,22.30685,R,ugm-3,9.528,R,ugm-3 (Ref.eq)
03-01-2020,20:00,15.725,R,ugm-3 (FIDAS),0.57192,R,ugm-3,16.36957,R,ugm-3,17.24650,R,ugm-3,9.835,R,ugm-3 (Ref.eq)
03-01-2020,21:00,14.250,R,ugm-3 (FIDAS),0.47099,R,ugm-3,13.58106,R,ugm-3,14.30323,R,ugm-3,8.703,R,ugm-3 (Ref.eq)
03-01-2020,22:00,14.875,R,ugm-3 (FIDAS),0.53827,R,ugm-3,13.78771,R,ugm-3,14.61305,R,ugm-3,8.679,R,ugm-3 (Ref.eq)
03-01-2020,23:00,12.450,R,ugm-3 (FIDAS),0.43735,R,ugm-3,10.37956,R,ugm-3,11.05015,R,ugm-3,7.642,R,ugm-3 (Ref.eq)
03-01-2020,24:00,10.725,R,ugm-3 (FIDAS),0.23550,R,ugm-3,6.04181,R,ugm-3,6.40289,R,ugm-3,5.920,R,ugm-3 (Ref.eq)
04-01-2020,01:00,10.400,R,ugm-3 (FIDAS),0.35926,R,ugm-3,4.48008,R,ugm-3,5.03094,R,ugm-3,5.637,R,ugm-3 (Ref.eq)
04-01-2020,02:00,11.450,R,ugm-3 (FIDAS),0.26945,R,ugm-3,4.27321,R,ugm-3,4.68636,R,ugm-3,5.826,R,ugm-3 (Ref.eq)
04-01-2020,03:00,10.775,R,ugm-3 (FIDAS),0.23577,R,ugm-3,5.22078,R,ugm-3,5.58228,R,ugm-3,5.826,R,ugm-3 (Ref.eq)
04-01-2020,04:00,10.325,R,ugm-3 (FIDAS),0.26945,R,ugm-3,3.72188,R,ugm-3,4.13502,R,ugm-3,5.354,R,ugm-3 (Ref.eq)
04-01-2020,05:00,9.725,R,ugm-3 (FIDAS),0.26945,R,ugm-3,3.56681,R,ugm-3,3.97996,R,ugm-3,4.953,R,ugm-3 (Ref.eq)
04-01-2020,06:00,8.025,R,ugm-3 (FIDAS),0.50522,R,ugm-3,8.01227,R,ugm-3,8.78692,R,ugm-3,4.269,R,ugm-3 (Ref.eq)
04-01-2020,07:00,7.675,R,ugm-3 (FIDAS),4.00804,R,ugm-3,20.47364,R,ugm-3,26.61921,R,ugm-3,4.151,R,ugm-3 (Ref.eq)
04-01-2020,08:00,7.850,R,ugm-3 (FIDAS),2.79552,R,ugm-3,20.93723,R,ugm-3,25.22364,R,ugm-3,4.458,R,ugm-3 (Ref.eq)
04-01-2020,09:00,9.375,R,ugm-3 (FIDAS),0.67362,R,ugm-3,9.20131,R,ugm-3,10.23418,R,ugm-3,4.882,R,ugm-3 (Ref.eq)
04-01-2020,10:00,11.525,R,ugm-3 (FIDAS),1.44828,R,ugm-3,13.75086,R,ugm-3,15.97153,R,ugm-3,6.109,R,ugm-3 (Ref.eq)
04-01-2020,11:00,9.950,R,ugm-3 (FIDAS),0.70730,R,ugm-3,9.09798,R,ugm-3,10.18249,R,ugm-3,5.024,R,ugm-3 (Ref.eq)
04-01-2020,12:00,6.925,R,ugm-3 (FIDAS),0.57258,R,ugm-3,6.66848,R,ugm-3,7.54642,R,ugm-3,3.632,R,ugm-3 (Ref.eq)
04-01-2020,13:00,5.950,R,ugm-3 (FIDAS),0.50522,R,ugm-3,5.16944,R,ugm-3,5.94410,R,ugm-3,3.090,R,ugm-3 (Ref.eq)
04-01-2020,14:00,6.375,R,ugm-3 (FIDAS),0.60626,R,ugm-3,6.09996,R,ugm-3,7.02954,R,ugm-3,3.302,R,ugm-3 (Ref.eq)
04-01-2020,15:00,6.025,R,ugm-3 (FIDAS),0.67362,R,ugm-3,7.08211,R,ugm-3,8.11498,R,ugm-3,3.420,R,ugm-3 (Ref.eq)
04-01-2020,16:00,7.300,R,ugm-3 (FIDAS),0.63994,R,ugm-3,9.61477,R,ugm-3,10.59600,R,ugm-3,4.363,R,ugm-3 (Ref.eq)
04-01-2020,17:00,8.775,R,ugm-3 (FIDAS),0.53890,R,ugm-3,15.24861,R,ugm-3,16.07490,R,ugm-3,4.906,R,ugm-3 (Ref.eq)
04-01-2020,18:00,11.225,R,ugm-3 (FIDAS),0.57258,R,ugm-3,20.21068,R,ugm-3,21.08862,R,ugm-3,6.675,R,ugm-3 (Ref.eq)
04-01-2020,19:00,14.375,R,ugm-3 (FIDAS),0.70730,R,ugm-3,22.07162,R,ugm-3,23.15613,R,ugm-3,9.953,R,ugm-3 (Ref.eq)
04-01-2020,20:00,13.350,R,ugm-3 (FIDAS),0.84203,R,ugm-3,23.51905,R,ugm-3,24.81014,R,ugm-3,8.774,R,ugm-3 (Ref.eq)
04-01-2020,21:00,10.600,R,ugm-3 (FIDAS),0.57258,R,ugm-3,15.40372,R,ugm-3,16.28165,R,ugm-3,7.783,R,ugm-3 (Ref.eq)
04-01-2020,22:00,10.225,R,ugm-3 (FIDAS),0.43785,R,ugm-3,13.85290,R,ugm-3,14.52427,R,ugm-3,7.972,R,ugm-3 (Ref.eq)
04-01-2020,23:00,13.075,R,ugm-3 (FIDAS),1.38092,R,ugm-3,28.68854,R,ugm-3,30.80592,R,ugm-3,10.590,R,ugm-3 (Ref.eq)
04-01-2020,24:00,13.700,R,ugm-3 (FIDAS),0.77466,R,ugm-3,24.55272,R,ugm-3,25.74052,R,ugm-3,11.250,R,ugm-3 (Ref.eq)
05-01-2020,01:00,16.250,R,ugm-3 (FIDAS),0.89920,R,ugm-3,22.76629,R,ugm-3,24.14503,R,ugm-3,13.774,R,ugm-3 (Ref.eq)
05-01-2020,02:00,17.050,R,ugm-3 (FIDAS),1.03408,R,ugm-3,21.73164,R,ugm-3,23.31720,R,ugm-3,14.340,R,ugm-3 (Ref.eq)
05-01-2020,03:00,14.000,R,ugm-3 (FIDAS),0.87672,R,ugm-3,20.80016,R,ugm-3,22.14444,R,ugm-3,11.981,R,ugm-3 (Ref.eq)
05-01-2020,04:00,8.925,R,ugm-3 (FIDAS),0.57324,R,ugm-3,11.12458,R,ugm-3,12.00353,R,ugm-3,7.076,R,ugm-3 (Ref.eq)
05-01-2020,05:00,2.350,R,ugm-3 (FIDAS),0.50580,R,ugm-3,4.81231,R,ugm-3,5.58785,R,ugm-3,1.863,R,ugm-3 (Ref.eq)
05-01-2020,06:00,1.575,R,ugm-3 (FIDAS),0.33720,R,ugm-3,4.50169,R,ugm-3,5.01872,R,ugm-3,0.896,R,ugm-3 (Ref.eq)
05-01-2020,07:00,2.600,R,ugm-3 (FIDAS),0.40464,R,ugm-3,6.77829,R,ugm-3,7.39873,R,ugm-3,1.274,R,ugm-3 (Ref.eq)
05-01-2020,08:00,2.350,R,ugm-3 (FIDAS),0.37092,R,ugm-3,8.43392,R,ugm-3,9.00265,R,ugm-3,1.274,R,ugm-3 (Ref.eq)
05-01-2020,09:00,2.675,R,ugm-3 (FIDAS),0.47208,R,ugm-3,8.95142,R,ugm-3,9.67526,R,ugm-3,1.344,R,ugm-3 (Ref.eq)
05-01-2020,10:00,2.400,R,ugm-3 (FIDAS),0.43836,R,ugm-3,7.39920,R,ugm-3,8.07134,R,ugm-3,1.179,R,ugm-3 (Ref.eq)
05-01-2020,11:00,2.500,R,ugm-3 (FIDAS),0.43836,R,ugm-3,5.17441,R,ugm-3,5.84655,R,ugm-3,1.156,R,ugm-3 (Ref.eq)
05-01-2020,12:00,2.325,R,ugm-3 (FIDAS),0.47208,R,ugm-3,3.98444,R,ugm-3,4.70828,R,ugm-3,1.203,R,ugm-3 (Ref.eq)
05-01-2020,13:00,2.600,R,ugm-3 (FIDAS),0.47208,R,ugm-3,4.24314,R,ugm-3,4.96698,R,ugm-3,1.533,R,ugm-3 (Ref.eq)
05-01-2020,14:00,3.125,R,ugm-3 (FIDAS),0.53952,R,ugm-3,5.43321,R,ugm-3,6.26046,R,ugm-3,1.769,R,ugm-3 (Ref.eq)
05-01-2020,15:00,3.600,R,ugm-3 (FIDAS),0.37092,R,ugm-3,4.50172,R,ugm-3,5.07046,R,ugm-3,1.958,R,ugm-3 (Ref.eq)
05-01-2020,16:00,5.425,R,ugm-3 (FIDAS),0.40464,R,ugm-3,6.36438,R,ugm-3,6.98481,R,ugm-3,3.042,R,ugm-3 (Ref.eq)
05-01-2020,17:00,7.925,R,ugm-3 (FIDAS),0.33720,R,ugm-3,8.69258,R,ugm-3,9.20961,R,ugm-3,4.175,R,ugm-3 (Ref.eq)
05-01-2020,18:00,7.925,R,ugm-3 (FIDAS),0.53952,R,ugm-3,8.95149,R,ugm-3,9.77874,R,ugm-3,4.057,R,ugm-3 (Ref.eq)
05-01-2020,19:00,8.125,R,ugm-3 (FIDAS),0.53952,R,ugm-3,11.22802,R,ugm-3,12.05527,R,ugm-3,4.222,R,ugm-3 (Ref.eq)
05-01-2020,20:00,12.725,R,ugm-3 (FIDAS),1.41623,R,ugm-3,19.76596,R,ugm-3,21.93749,R,ugm-3,7.854,R,ugm-3 (Ref.eq)
05-01-2020,21:00,11.175,R,ugm-3 (FIDAS),0.43836,R,ugm-3,7.08876,R,ugm-3,7.76090,R,ugm-3,6.061,R,ugm-3 (Ref.eq)
05-01-2020,22:00,10.600,R,ugm-3 (FIDAS),0.43836,R,ugm-3,5.89876,R,ugm-3,6.57090,R,ugm-3,5.495,R,ugm-3 (Ref.eq)
05-01-2020,23:00,8.200,R,ugm-3 (FIDAS),0.30348,R,ugm-3,4.44991,R,ugm-3,4.91524,R,ugm-3,4.410,R,ugm-3 (Ref.eq)
05-01-2020,24:00,6.150,R,ugm-3 (FIDAS),0.26976,R,ugm-3,3.25987,R,ugm-3,3.67349,R,ugm-3,3.396,R,ugm-3 (Ref.eq)
06-01-2020,01:00,5.625,R,ugm-3 (FIDAS),0.04501,R,ugm-3,1.79546,R,ugm-3,1.86447,R,ugm-3,3.208,R,ugm-3 (Ref.eq)
06-01-2020,02:00,6.575,R,ugm-3 (FIDAS),0.31508,R,ugm-3,2.00285,R,ugm-3,2.48597,R,ugm-3,3.986,R,ugm-3 (Ref.eq)
06-01-2020,03:00,8.075,R,ugm-3 (FIDAS),0.23631,R,ugm-3,1.55393,R,ugm-3,1.91626,R,ugm-3,5.000,R,ugm-3 (Ref.eq)
06-01-2020,04:00,8.025,R,ugm-3 (FIDAS),0.30383,R,ugm-3,2.74517,R,ugm-3,3.21104,R,ugm-3,5.024,R,ugm-3 (Ref.eq)
06-01-2020,05:00,5.125,R,ugm-3 (FIDAS),0.20255,R,ugm-3,2.17539,R,ugm-3,2.48597,R,ugm-3,3.113,R,ugm-3 (Ref.eq)
06-01-2020,06:00,4.750,R,ugm-3 (FIDAS),0.33759,R,ugm-3,2.58983,R,ugm-3,3.10746,R,ugm-3,2.995,R,ugm-3 (Ref.eq)
06-01-2020,07:00,4.500,R,ugm-3 (FIDAS),0.54014,R,ugm-3,4.04015,R,ugm-3,4.86835,R,ugm-3,3.019,R,ugm-3 (Ref.eq)
06-01-2020,08:00,5.125,R,ugm-3 (FIDAS),0.33759,R,ugm-3,5.74908,R,ugm-3,6.26670,R,ugm-3,3.278,R,ugm-3 (Ref.eq)
06-01-2020,09:00,6.425,R,ugm-3 (FIDAS),1.08028,R,ugm-3,9.47865,R,ugm-3,11.13505,R,ugm-3,4.127,R,ugm-3 (Ref.eq)
06-01-2020,10:00,7.950,R,ugm-3 (FIDAS),1.51914,R,ugm-3,8.28782,R,ugm-3,10.61714,R,ugm-3,4.953,R,ugm-3 (Ref.eq)
06-01-2020,11:00,9.400,R,ugm-3 (FIDAS),1.28283,R,ugm-3,9.37523,R,ugm-3,11.34221,R,ugm-3,5.778,R,ugm-3 (Ref.eq)
06-01-2020,12:00,8.600,R,ugm-3 (FIDAS),1.41787,R,ugm-3,8.13236,R,ugm-3,10.30639,R,ugm-3,4.953,R,ugm-3 (Ref.eq)
06-01-2020,13:00,9.600,R,ugm-3 (FIDAS),1.04652,R,ugm-3,5.33534,R,ugm-3,6.93998,R,ugm-3,5.425,R,ugm-3 (Ref.eq)
06-01-2020,14:00,10.700,R,ugm-3 (FIDAS),0.43886,R,ugm-3,3.57394,R,ugm-3,4.24686,R,ugm-3,6.392,R,ugm-3 (Ref.eq)
06-01-2020,15:00,12.925,R,ugm-3 (FIDAS),0.57390,R,ugm-3,5.07599,R,ugm-3,5.95596,R,ugm-3,7.665,R,ugm-3 (Ref.eq)
06-01-2020,16:00,13.825,R,ugm-3 (FIDAS),0.67517,R,ugm-3,7.45846,R,ugm-3,8.49371,R,ugm-3,7.288,R,ugm-3 (Ref.eq)
06-01-2020,17:00,13.400,R,ugm-3 (FIDAS),0.64142,R,ugm-3,7.25127,R,ugm-3,8.23476,R,ugm-3,7.547,R,ugm-3 (Ref.eq)
06-01-2020,18:00,15.700,R,ugm-3 (FIDAS),0.47262,R,ugm-3,6.78501,R,ugm-3,7.50968,R,ugm-3,9.410,R,ugm-3 (Ref.eq)
06-01-2020,19:00,15.950,R,ugm-3 (FIDAS),0.47262,R,ugm-3,5.38665,R,ugm-3,6.11133,R,ugm-3,10.354,R,ugm-3 (Ref.eq)
06-01-2020,20:00,12.275,R,ugm-3 (FIDAS),0.43886,R,ugm-3,4.45439,R,ugm-3,5.12730,R,ugm-3,7.500,R,ugm-3 (Ref.eq)
06-01-2020,21:00,13.275,R,ugm-3 (FIDAS),0.50638,R,ugm-3,8.54593,R,ugm-3,9.32237,R,ugm-3,7.712,R,ugm-3 (Ref.eq)
06-01-2020,22:00,15.000,R,ugm-3 (FIDAS),0.40510,R,ugm-3,10.35853,R,ugm-3,10.97968,R,ugm-3,9.151,R,ugm-3 (Ref.eq)
06-01-2020,23:00,19.300,R,ugm-3 (FIDAS),0.27007,R,ugm-3,12.58542,R,ugm-3,12.99952,R,ugm-3,10.731,R,ugm-3 (Ref.eq)
06-01-2020,24:00,20.100,R,ugm-3 (FIDAS),0.50638,R,ugm-3,14.60546,R,ugm-3,15.38190,R,ugm-3,11.226,R,ugm-3 (Ref.eq)
07-01-2020,01:00,26.050,R,ugm-3 (FIDAS),0.36051,R,ugm-3,9.26274,R,ugm-3,9.81551,R,ugm-3,13.514,R,ugm-3 (Ref.eq)
07-01-2020,02:00,28.850,R,ugm-3 (FIDAS),0.49570,R,ugm-3,6.56701,R,ugm-3,7.32707,R,ugm-3,14.434,R,ugm-3 (Ref.eq)
07-01-2020,03:00,31.600,R,ugm-3 (FIDAS),0.37177,R,ugm-3,5.44369,R,ugm-3,6.01373,R,ugm-3,14.929,R,ugm-3 (Ref.eq)
07-01-2020,04:00,30.675,R,ugm-3 (FIDAS),0.40557,R,ugm-3,4.82159,R,ugm-3,5.44346,R,ugm-3,14.811,R,ugm-3 (Ref.eq)
07-01-2020,05:00,29.100,R,ugm-3 (FIDAS),0.33798,R,ugm-3,4.35497,R,ugm-3,4.87319,R,ugm-3,14.245,R,ugm-3 (Ref.eq)
07-01-2020,06:00,28.825,R,ugm-3 (FIDAS),0.23658,R,ugm-3,3.36990,R,ugm-3,3.73266,R,ugm-3,14.576,R,ugm-3 (Ref.eq)
07-01-2020,07:00,26.400,R,ugm-3 (FIDAS),0.40557,R,ugm-3,6.53240,R,ugm-3,7.15426,R,ugm-3,13.844,R,ugm-3 (Ref.eq)
07-01-2020,08:00,28.825,R,ugm-3 (FIDAS),0.43937,R,ugm-3,9.90218,R,ugm-3,10.57587,R,ugm-3,14.528,R,ugm-3 (Ref.eq)
07-01-2020,09:00,30.350,R,ugm-3 (FIDAS),0.64215,R,ugm-3,15.29392,R,ugm-3,16.27854,R,ugm-3,14.953,R,ugm-3 (Ref.eq)
07-01-2020,10:00,27.950,R,ugm-3 (FIDAS),0.84494,R,ugm-3,9.53953,R,ugm-3,10.83508,R,ugm-3,15.425,R,ugm-3 (Ref.eq)
07-01-2020,11:00,25.875,R,ugm-3 (FIDAS),0.70975,R,ugm-3,5.39205,R,ugm-3,6.48031,R,ugm-3,14.670,R,ugm-3 (Ref.eq)
07-01-2020,12:00,24.900,R,ugm-3 (FIDAS),0.87874,R,ugm-3,5.65136,R,ugm-3,6.99874,R,ugm-3,14.269,R,ugm-3 (Ref.eq)
07-01-2020,13:00,25.275,R,ugm-3 (FIDAS),0.87874,R,ugm-3,5.28846,R,ugm-3,6.63584,R,ugm-3,14.080,R,ugm-3 (Ref.eq)
07-01-2020,14:00,17.025,R,ugm-3 (FIDAS),1.21671,R,ugm-3,6.48104,R,ugm-3,8.34664,R,ugm-3,9.528,R,ugm-3 (Ref.eq)
07-01-2020,15:00,13.050,R,ugm-3 (FIDAS),0.77734,R,ugm-3,8.19158,R,ugm-3,9.38349,R,ugm-3,7.476,R,ugm-3 (Ref.eq)
07-01-2020,16:00,7.625,R,ugm-3 (FIDAS),0.67595,R,ugm-3,7.46573,R,ugm-3,8.50217,R,ugm-3,5.094,R,ugm-3 (Ref.eq)
07-01-2020,17:00,6.275,R,ugm-3 (FIDAS),0.57456,R,ugm-3,5.70302,R,ugm-3,6.58400,R,ugm-3,3.939,R,ugm-3 (Ref.eq)
07-01-2020,18:00,7.500,R,ugm-3 (FIDAS),0.57456,R,ugm-3,5.54749,R,ugm-3,6.42847,R,ugm-3,5.142,R,ugm-3 (Ref.eq)
07-01-2020,19:00,7.900,R,ugm-3 (FIDAS),0.57456,R,ugm-3,4.56249,R,ugm-3,5.44346,R,ugm-3,5.590,R,ugm-3 (Ref.eq)
07-01-2020,20:00,6.300,R,ugm-3 (FIDAS),0.47317,R,ugm-3,5.91033,R,ugm-3,6.63584,R,ugm-3,4.882,R,ugm-3 (Ref.eq)
07-01-2020,21:00,8.625,R,ugm-3 (FIDAS),0.40557,R,ugm-3,6.53240,R,ugm-3,7.15426,R,ugm-3,6.274,R,ugm-3 (Ref.eq)
07-01-2020,22:00,7.375,R,ugm-3 (FIDAS),0.33798,R,ugm-3,3.99207,R,ugm-3,4.51030,R,ugm-3,5.142,R,ugm-3 (Ref.eq)
07-01-2020,23:00,6.950,R,ugm-3 (FIDAS),0.27038,R,ugm-3,3.57730,R,ugm-3,3.99187,R,ugm-3,4.646,R,ugm-3 (Ref.eq)
07-01-2020,24:00,5.925,R,ugm-3 (FIDAS),0.30418,R,ugm-3,4.40679,R,ugm-3,4.87319,R,ugm-3,3.774,R,ugm-3 (Ref.eq)
08-01-2020,01:00,3.750,R,ugm-3 (FIDAS),0.27069,R,ugm-3,1.17636,R,ugm-3,1.59142,R,ugm-3,2.429,R,ugm-3 (Ref.eq)
08-01-2020,02:00,2.725,R,ugm-3 (FIDAS),0.31581,R,ugm-3,3.73649,R,ugm-3,4.22072,R,ugm-3,1.863,R,ugm-3 (Ref.eq)
08-01-2020,03:00,3.225,R,ugm-3 (FIDAS),0.30453,R,ugm-3,4.56679,R,ugm-3,5.03372,R,ugm-3,2.241,R,ugm-3 (Ref.eq)
08-01-2020,04:00,2.950,R,ugm-3 (FIDAS),0.37220,R,ugm-3,3.99598,R,ugm-3,4.56668,R,ugm-3,1.934,R,ugm-3 (Ref.eq)
08-01-2020,05:00,1.575,R,ugm-3 (FIDAS),0.33836,R,ugm-3,2.90619,R,ugm-3,3.42501,R,ugm-3,1.038,R,ugm-3 (Ref.eq)
08-01-2020,06:00,1.800,R,ugm-3 (FIDAS),0.20302,R,ugm-3,4.98190,R,ugm-3,5.29319,R,ugm-3,1.368,R,ugm-3 (Ref.eq)
08-01-2020,07:00,3.825,R,ugm-3 (FIDAS),0.54138,R,ugm-3,7.31726,R,ugm-3,8.14737,R,ugm-3,2.689,R,ugm-3 (Ref.eq)
08-01-2020,08:00,2.850,R,ugm-3 (FIDAS),0.37220,R,ugm-3,7.88803,R,ugm-3,8.45873,R,ugm-3,2.288,R,ugm-3 (Ref.eq)
08-01-2020,09:00,3.475,R,ugm-3 (FIDAS),0.50755,R,ugm-3,7.52482,R,ugm-3,8.30305,R,ugm-3,2.665,R,ugm-3 (Ref.eq)
08-01-2020,10:00,4.925,R,ugm-3 (FIDAS),0.57522,R,ugm-3,6.43507,R,ugm-3,7.31706,R,ugm-3,3.420,R,ugm-3 (Ref.eq)
08-01-2020,11:00,9.700,R,ugm-3 (FIDAS),0.81207,R,ugm-3,6.74652,R,ugm-3,7.99168,R,ugm-3,5.849,R,ugm-3 (Ref.eq)
08-01-2020,12:00,11.300,R,ugm-3 (FIDAS),0.77824,R,ugm-3,7.88818,R,ugm-3,9.08146,R,ugm-3,6.462,R,ugm-3 (Ref.eq)
08-01-2020,13:00,9.050,R,ugm-3 (FIDAS),1.04893,R,ugm-3,9.49699,R,ugm-3,11.10533,R,ugm-3,5.637,R,ugm-3 (Ref.eq)
08-01-2020,14:00,9.825,R,ugm-3 (FIDAS),0.98126,R,ugm-3,9.49697,R,ugm-3,11.00154,R,ugm-3,5.495,R,ugm-3 (Ref.eq)
08-01-2020,15:00,11.675,R,ugm-3 (FIDAS),0.81207,R,ugm-3,10.43100,R,ugm-3,11.67616,R,ugm-3,6.769,R,ugm-3 (Ref.eq)
08-01-2020,16:00,10.875,R,ugm-3 (FIDAS),0.84591,R,ugm-3,11.36511,R,ugm-3,12.66215,R,ugm-3,6.368,R,ugm-3 (Ref.eq)
08-01-2020,17:00,12.500,R,ugm-3 (FIDAS),0.74440,R,ugm-3,11.98780,R,ugm-3,13.12920,R,ugm-3,7.193,R,ugm-3 (Ref.eq)
08-01-2020,18:00,14.425,R,ugm-3 (FIDAS),2.26704,R,ugm-3,25.74027,R,ugm-3,29.21635,R,ugm-3,9.340,R,ugm-3 (Ref.eq)
08-01-2020,19:00,18.375,R,ugm-3 (FIDAS),8.66212,R,ugm-3,49.35439,R,ugm-3,62.63612,R,ugm-3,13.302,R,ugm-3 (Ref.eq)
08-01-2020,20:00,27.950,R,ugm-3 (FIDAS),3.11295,R,ugm-3,29.89211,R,ugm-3,34.66523,R,ugm-3,18.585,R,ugm-3 (Ref.eq)
08-01-2020,21:00,23.025,R,ugm-3 (FIDAS),1.79333,R,ugm-3,26.05147,R,ugm-3,28.80120,R,ugm-3,16.722,R,ugm-3 (Ref.eq)
08-01-2020,22:00,14.275,R,ugm-3 (FIDAS),1.31962,R,ugm-3,19.87590,R,ugm-3,21.89929,R,ugm-3,11.061,R,ugm-3 (Ref.eq)
08-01-2020,23:00,4.900,R,ugm-3 (FIDAS),1.08277,R,ugm-3,18.31899,R,ugm-3,19.97921,R,ugm-3,3.821,R,ugm-3 (Ref.eq)
08-01-2020,24:00,8.900,R,ugm-3 (FIDAS),0.57522,R,ugm-3,7.31727,R,ugm-3,8.19926,R,ugm-3,6.840,R,ugm-3 (Ref.eq)
09-01-2020,01:00,8.250,R,ugm-3 (FIDAS),0.40650,R,ugm-3,5.74870,R,ugm-3,6.37200,R,ugm-3,5.472,R,ugm-3 (Ref.eq)
09-01-2020,02:00,7.175,R,ugm-3 (FIDAS),0.31617,R,ugm-3,3.94791,R,ugm-3,4.43269,R,ugm-3,4.599,R,ugm-3 (Ref.eq)
09-01-2020,03:00,6.925,R,ugm-3 (FIDAS),0.47425,R,ugm-3,2.59734,R,ugm-3,3.32452,R,ugm-3,4.198,R,ugm-3 (Ref.eq)
09-01-2020,04:00,7.625,R,ugm-3 (FIDAS),0.33875,R,ugm-3,1.76619,R,ugm-3,2.28561,R,ugm-3,4.198,R,ugm-3 (Ref.eq)
09-01-2020,05:00,10.925,R,ugm-3 (FIDAS),0.27100,R,ugm-3,1.55840,R,ugm-3,1.97393,R,ugm-3,5.778,R,ugm-3 (Ref.eq)
09-01-2020,06:00,14.050,R,ugm-3 (FIDAS),0.30488,R,ugm-3,2.90899,R,ugm-3,3.37647,R,ugm-3,7.170,R,ugm-3 (Ref.eq)
09-01-2020,07:00,14.475,R,ugm-3 (FIDAS),0.44038,R,ugm-3,2.12983,R,ugm-3,2.80506,R,ugm-3,6.580,R,ugm-3 (Ref.eq)
09-01-2020,08:00,11.975,R,ugm-3 (FIDAS),0.47425,R,ugm-3,2.96096,R,ugm-3,3.68814,R,ugm-3,6.085,R,ugm-3 (Ref.eq)
09-01-2020,09:00,13.825,R,ugm-3 (FIDAS),0.64363,R,ugm-3,4.51935,R,ugm-3,5.50624,R,ugm-3,6.533,R,ugm-3 (Ref.eq)
09-01-2020,10:00,11.650,R,ugm-3 (FIDAS),0.67751,R,ugm-3,4.10379,R,ugm-3,5.14262,R,ugm-3,5.590,R,ugm-3 (Ref.eq)
09-01-2020,11:00,8.125,R,ugm-3 (FIDAS),0.64363,R,ugm-3,3.37655,R,ugm-3,4.36343,R,ugm-3,4.340,R,ugm-3 (Ref.eq)
09-01-2020,12:00,6.850,R,ugm-3 (FIDAS),0.71138,R,ugm-3,6.28551,R,ugm-3,7.37628,R,ugm-3,3.797,R,ugm-3 (Ref.eq)
09-01-2020,13:00,3.875,R,ugm-3 (FIDAS),1.01626,R,ugm-3,7.11668,R,ugm-3,8.67492,R,ugm-3,2.382,R,ugm-3 (Ref.eq)
09-01-2020,14:00,5.425,R,ugm-3 (FIDAS),0.81301,R,ugm-3,7.06471,R,ugm-3,8.31130,R,ugm-3,2.877,R,ugm-3 (Ref.eq)
09-01-2020,15:00,6.300,R,ugm-3 (FIDAS),0.71138,R,ugm-3,7.37637,R,ugm-3,8.46714,R,ugm-3,3.066,R,ugm-3 (Ref.eq)
09-01-2020,16:00,10.575,R,ugm-3 (FIDAS),0.71138,R,ugm-3,6.18162,R,ugm-3,7.27239,R,ugm-3,5.212,R,ugm-3 (Ref.eq)
09-01-2020,17:00,13.325,R,ugm-3 (FIDAS),0.40650,R,ugm-3,5.45434,R,ugm-3,6.07764,R,ugm-3,6.368,R,ugm-3 (Ref.eq)
09-01-2020,18:00,16.675,R,ugm-3 (FIDAS),0.47425,R,ugm-3,4.05182,R,ugm-3,4.77900,R,ugm-3,7.877,R,ugm-3 (Ref.eq)
09-01-2020,19:00,19.200,R,ugm-3 (FIDAS),0.60976,R,ugm-3,5.45437,R,ugm-3,6.38931,R,ugm-3,8.797,R,ugm-3 (Ref.eq)